Torna al catalogo

STARLINK-5848

AttivoComunicazioniVLEO
NORAD 55932·PAYLOAD·🇺🇸 United States

Lanciato Mar 17, 2023 da Vandenberg Space Force Base

Loading…

Prossimi Passaggi (prossime 24 ore)

TLE

AggiornatoSource: CelesTrak SupGP

Epoca: Sep 14, 2026, 22:31 UTC

1 55932C 23037U   26257.93868056 -.00020740  00000+0 -17381-2 0  2579
2 55932  70.0007 147.1036 0002813 272.4150 156.2763 14.98340849    18

Traccia STARLINK-5848 in tempo reale con AllMySat

Download on the App Store